一网星座-0132星 (ONEWEB-0132 )

导读 | 星芒AI

ONEWEB-0132 是 OneWeb 卫星星座计划中的一颗低轨通信卫星,旨在为全球提供高速互联网服务。该卫星由阿丽亚娜集团制造,采用统一卫星平台,具备高容量和高可靠性。它运行在约 1200 公里的近地轨道,支持极地覆盖,确保偏远和农村地区也能接入互联网。ONEWEB-0132 于 2022 年发射,是 OneWeb 扩展其全球宽带网络部署的一部分,有助于实现数字包容和全球连接目标。

基本信息
目录编号:
47278
目录名称:
ONEWEB-0132
国际标识:
2020-100W
轨道中心:
EARTH
卫星名称:
一网星座-0132星
卫星全名:
一网星座-0132星 (ONEWEB-0132 )
卫星状态:
在轨 (已飞行1821 天)
发射日期:
2020-12-18 UTC
国别 :
英国 (GB)
星等 :
--
轨道信息
数据来源 国际轨道数据
星历时间: 2025-12-13T03:34:58+0800
14小时前
查看轨道信息
半长轴: 7591.701km
偏心率: 0.0001856
轨道倾角: 87.895°
近地点辐角 95.523°
升交点赤经 27.702°
平近点角 264.611°
近地点: 1212.156km
远地点: 1214.976km
周期: 109.716分钟
每日圈数: 13.124844
详细信息
平衡模式:
三轴稳定
覆盖范围:
全球
运营商:
一网卫星公司
运营商所在国:
英国
制造商(研发单位):
一网卫星公司
制造商所在国:
英国
使用方式:
暂无
卫星简介
OneWeb卫星网络由648颗重约125公斤的微型卫星组成,运行在1200公里的轨道上。 每颗卫星都能够提供至少每秒8千兆位的吞吐量,以使用其高吞吐量的Ku频段有效载荷为家庭和移动平台提供互联网接入。该卫星仍在工作。
2D轨道图
3D轨道图
轨道高度分析图
轨道倾角分析图
轨道综合分析图
查看轨道综合分析图